Time,TemperatureF,DewpointF,PressureIn,WindDirection,WindDirectionDegrees,WindSpeedMPH,WindSpeedGustMPH,Humidity,HourlyPrecipIn,Conditions,Clouds,dailyrainin,SoftwareType,DateUTC
2013-08-25 00:04:00,72.6,66.8,30.04,NNW,341,15.0,36.0,82,0.00,,,0.00,Weather View 32 v70,2013-08-25 10:04:00,
2013-08-25 00:09:00,72.6,66.8,30.04,NNW,328,18.0,36.0,82,0.00,,,0.00,Weather View 32 v70,2013-08-25 10:09:00,
2013-08-25 00:14:00,72.6,66.4,30.04,North,10,12.0,32.0,81,0.00,,,0.00,Weather View 32 v70,2013-08-25 10:14:00,
2013-08-25 00:19:00,72.6,66.4,30.04,NW,324,13.0,32.0,81,0.00,,,0.00,Weather View 32 v70,2013-08-25 10:19:00,
2013-08-25 00:24:00,72.5,66.7,30.04,North,11,14.0,31.0,82,0.00,,,0.00,Weather View 32 v70,2013-08-25 10:24:00,
2013-08-25 00:29:00,72.5,66.7,30.05,NNE,31,18.0,31.0,82,0.00,,,0.00,Weather View 32 v70,2013-08-25 10:29:00,
2013-08-25 00:34:00,72.4,66.6,30.04,NNE,17,18.0,31.0,82,0.00,,,0.00,Weather View 32 v70,2013-08-25 10:34:00,
2013-08-25 00:39:00,72.3,66.8,30.03,NNW,345,15.0,31.0,83,0.00,,,0.00,Weather View 32 v70,2013-08-25 10:39:00,
2013-08-25 00:44:00,72.3,66.5,30.04,NNW,330,15.0,31.0,82,0.00,,,0.00,Weather View 32 v70,2013-08-25 10:44:00,
2013-08-25 00:49:00,72.4,66.6,30.03,North,355,13.0,28.0,82,0.00,,,0.00,Weather View 32 v70,2013-08-25 10:49:00,
2013-08-25 00:54:00,72.5,66.3,30.02,NNW,341,23.0,28.0,81,0.00,,,0.00,Weather View 32 v70,2013-08-25 10:54:00,
2013-08-25 00:59:00,72.6,66.1,30.04,WNW,282,7.0,28.0,80,0.00,,,0.00,Weather View 32 v70,2013-08-25 10:59:00,
2013-08-25 01:04:00,72.5,66.0,30.03,NNW,343,14.0,30.0,80,0.00,,,0.00,Weather View 32 v70,2013-08-25 11:04:00,
2013-08-25 01:09:00,72.6,65.7,30.02,NNW,329,14.0,30.0,79,0.00,,,0.00,Weather View 32 v70,2013-08-25 11:09:00,
2013-08-25 01:14:00,72.8,65.5,30.03,NNW,337,16.0,30.0,78,0.00,,,0.00,Weather View 32 v70,2013-08-25 11:14:00,
2013-08-25 01:19:00,72.8,65.1,30.03,NNW,340,11.0,30.0,77,0.00,,,0.00,Weather View 32 v70,2013-08-25 11:19:00,
2013-08-25 01:24:00,72.8,65.5,30.03,North,357,9.0,30.0,78,0.00,,,0.00,Weather View 32 v70,2013-08-25 11:24:00,
2013-08-25 01:29:00,72.7,65.4,30.03,North,353,25.0,30.0,78,0.00,,,0.00,Weather View 32 v70,2013-08-25 11:29:00,
2013-08-25 01:34:00,72.6,65.7,30.02,North,9,20.0,30.0,79,0.00,,,0.00,Weather View 32 v70,2013-08-25 11:34:00,
2013-08-25 01:39:00,72.4,66.2,30.03,NNW,327,21.0,30.0,81,0.00,,,0.00,Weather View 32 v70,2013-08-25 11:39:00,
2013-08-25 01:44:00,72.2,66.7,30.03,NNW,329,26.0,30.0,83,0.00,,,0.00,Weather View 32 v70,2013-08-25 11:44:00,
2013-08-25 01:49:00,72.1,66.6,30.03,NNE,20,10.0,32.0,83,0.00,,,0.00,Weather View 32 v70,2013-08-25 11:49:00,
2013-08-25 01:54:00,72.1,66.3,30.02,North,353,19.0,32.0,82,0.00,,,0.00,Weather View 32 v70,2013-08-25 11:54:00,
2013-08-25 01:59:00,72.3,65.8,30.03,NNW,335,15.0,32.0,80,0.00,,,0.00,Weather View 32 v70,2013-08-25 11:59:00,
2013-08-25 02:04:00,72.5,66.3,30.03,NW,319,19.0,32.0,81,0.00,,,0.00,Weather View 32 v70,2013-08-25 12:04:00,
2013-08-25 02:09:00,72.5,65.6,30.02,NNW,332,38.0,38.0,79,0.00,,,0.00,Weather View 32 v70,2013-08-25 12:09:00,
2013-08-25 02:14:00,72.7,65.8,30.02,NW,324,21.0,41.0,79,0.00,,,0.00,Weather View 32 v70,2013-08-25 12:14:00,
2013-08-25 02:19:00,72.6,65.7,30.02,NNW,343,26.0,41.0,79,0.00,,,0.00,Weather View 32 v70,2013-08-25 12:19:00,
2013-08-25 02:24:00,72.6,65.7,30.03,NNE,20,21.0,41.0,79,0.00,,,0.00,Weather View 32 v70,2013-08-25 12:24:00,
2013-08-25 02:29:00,72.6,65.7,30.03,NNW,344,21.0,41.0,79,0.00,,,0.00,Weather View 32 v70,2013-08-25 12:29:00,
2013-08-25 02:34:00,72.6,66.1,30.03,North,354,21.0,41.0,80,0.00,,,0.00,Weather View 32 v70,2013-08-25 12:34:00,
2013-08-25 02:39:00,72.4,66.6,30.03,North,349,14.0,41.0,82,0.00,,,0.00,Weather View 32 v70,2013-08-25 12:39:00,
2013-08-25 02:44:00,72.3,66.5,30.03,NNE,23,13.0,41.0,82,0.00,,,0.00,Weather View 32 v70,2013-08-25 12:44:00,
2013-08-25 02:49:00,72.3,66.5,30.01,NNW,328,23.0,41.0,82,0.00,,,0.00,Weather View 32 v70,2013-08-25 12:49:00,
2013-08-25 02:54:00,72.2,66.7,30.01,NNW,346,19.0,41.0,83,0.00,,,0.00,Weather View 32 v70,2013-08-25 12:54:00,
2013-08-25 02:59:00,72.3,67.2,30.02,North,5,21.0,41.0,84,0.00,,,0.00,Weather View 32 v70,2013-08-25 12:59:00,
2013-08-25 03:04:00,72.2,67.4,30.02,NNW,339,17.0,41.0,85,0.00,,,0.00,Weather View 32 v70,2013-08-25 13:04:00,
2013-08-25 03:09:00,72.1,67.3,30.02,North,359,18.0,41.0,85,0.00,,,0.00,Weather View 32 v70,2013-08-25 13:09:00,
2013-08-25 03:14:00,72.0,67.2,30.02,NNE,22,11.0,32.0,85,0.00,,,0.00,Weather View 32 v70,2013-08-25 13:14:00,
2013-08-25 03:19:00,72.1,67.0,30.02,NNE,12,22.0,32.0,84,0.00,,,0.00,Weather View 32 v70,2013-08-25 13:19:00,
2013-08-25 03:24:00,72.3,67.2,30.02,North,352,12.0,32.0,84,0.00,,,0.00,Weather View 32 v70,2013-08-25 13:24:00,
2013-08-25 03:29:00,72.2,67.4,30.02,NNW,348,22.0,31.0,85,0.00,,,0.00,Weather View 32 v70,2013-08-25 13:29:00,
2013-08-25 03:34:00,72.1,67.0,30.00,NNW,328,14.0,31.0,84,0.00,,,0.00,Weather View 32 v70,2013-08-25 13:34:00,
2013-08-25 03:39:00,72.1,67.3,30.02,NNW,335,19.0,31.0,85,0.00,,,0.00,Weather View 32 v70,2013-08-25 13:39:00,
2013-08-25 03:44:00,72.1,67.0,30.02,NNW,339,27.0,31.0,84,0.00,,,0.00,Weather View 32 v70,2013-08-25 13:44:00,
2013-08-25 03:49:00,72.1,67.0,30.02,North,6,18.0,31.0,84,0.00,,,0.00,Weather View 32 v70,2013-08-25 13:49:00,
2013-08-25 03:54:00,72.0,67.2,30.02,NW,320,20.0,31.0,85,0.00,,,0.00,Weather View 32 v70,2013-08-25 13:54:00,
2013-08-25 03:59:00,72.0,67.6,30.01,North,352,22.0,31.0,86,0.00,,,0.00,Weather View 32 v70,2013-08-25 13:59:00,
2013-08-25 04:04:00,72.0,67.9,30.00,NNE,14,21.0,31.0,87,0.00,,,0.00,Weather View 32 v70,2013-08-25 14:04:00,
2013-08-25 04:09:00,72.1,68.0,30.00,North,1,25.0,33.0,87,0.00,,,0.00,Weather View 32 v70,2013-08-25 14:09:00,
2013-08-25 04:14:00,71.9,67.8,29.99,North,2,26.0,33.0,87,0.00,,,0.00,Weather View 32 v70,2013-08-25 14:14:00,
2013-08-25 04:19:00,71.9,67.8,30.00,North,10,24.0,33.0,87,0.00,,,0.00,Weather View 32 v70,2013-08-25 14:19:00,
2013-08-25 04:24:00,71.9,67.8,30.01,NNE,31,20.0,33.0,87,0.00,,,0.00,Weather View 32 v70,2013-08-25 14:24:00,
2013-08-25 04:29:00,72.0,67.9,30.01,North,1,16.0,33.0,87,0.00,,,0.00,Weather View 32 v70,2013-08-25 14:29:00,
2013-08-25 04:34:00,72.0,67.9,30.01,North,352,31.0,33.0,87,0.00,,,0.00,Weather View 32 v70,2013-08-25 14:34:00,
2013-08-25 04:39:00,72.1,68.0,30.00,NNE,12,26.0,33.0,87,0.00,,,0.00,Weather View 32 v70,2013-08-25 14:39:00,
2013-08-25 04:44:00,72.2,68.1,30.01,NNE,12,27.0,33.0,87,0.00,,,0.00,Weather View 32 v70,2013-08-25 14:44:00,
2013-08-25 04:49:00,72.2,68.4,30.00,NNE,16,25.0,35.0,88,0.00,,,0.00,Weather View 32 v70,2013-08-25 14:49:00,
2013-08-25 04:54:00,72.0,68.2,30.01,North,3,23.0,35.0,88,0.00,,,0.00,Weather View 32 v70,2013-08-25 14:54:00,
2013-08-25 04:59:00,72.0,68.2,30.01,North,8,22.0,35.0,88,0.00,,,0.00,Weather View 32 v70,2013-08-25 14:59:00,
2013-08-25 05:04:00,72.1,68.0,30.00,NNE,12,29.0,35.0,87,0.00,,,0.00,Weather View 32 v70,2013-08-25 15:04:00,
2013-08-25 05:09:00,72.1,68.0,30.01,NNE,14,28.0,35.0,87,0.00,,,0.00,Weather View 32 v70,2013-08-25 15:09:00,
2013-08-25 05:14:00,72.1,68.3,30.01,North,10,24.0,35.0,88,0.00,,,0.00,Weather View 32 v70,2013-08-25 15:14:00,
2013-08-25 05:20:00,72.1,68.3,30.01,North,4,24.0,35.0,88,0.00,,,0.00,Weather View 32 v70,2013-08-25 15:20:00,
2013-08-25 05:25:00,72.1,68.3,30.01,North,351,23.0,35.0,88,0.00,,,0.00,Weather View 32 v70,2013-08-25 15:25:00,
2013-08-25 05:30:00,72.1,68.0,30.01,North,353,18.0,35.0,87,0.00,,,0.00,Weather View 32 v70,2013-08-25 15:30:00,
2013-08-25 05:35:00,72.1,68.3,30.01,North,2,20.0,35.0,88,0.00,,,0.00,Weather View 32 v70,2013-08-25 15:35:00,
2013-08-25 05:40:00,72.1,68.0,30.00,North,10,29.0,35.0,87,0.00,,,0.00,Weather View 32 v70,2013-08-25 15:40:00,
2013-08-25 05:45:00,72.1,68.0,30.01,North,359,28.0,35.0,87,0.00,,,0.00,Weather View 32 v70,2013-08-25 15:45:00,
2013-08-25 05:50:00,72.1,68.0,30.01,NNW,345,24.0,35.0,87,0.00,,,0.00,Weather View 32 v70,2013-08-25 15:50:00,
2013-08-25 05:55:00,72.1,68.3,30.00,North,9,25.0,35.0,88,0.00,,,0.00,Weather View 32 v70,2013-08-25 15:55:00,
2013-08-25 06:00:00,72.0,68.2,30.01,NNE,26,19.0,35.0,88,0.00,,,0.00,Weather View 32 v70,2013-08-25 16:00:00,
2013-08-25 06:05:00,71.9,68.1,30.03,North,355,8.0,35.0,88,0.00,,,0.00,Weather View 32 v70,2013-08-25 16:05:00,
2013-08-25 06:10:00,72.0,67.9,30.02,NE,43,21.0,35.0,87,0.00,,,0.00,Weather View 32 v70,2013-08-25 16:10:00,
2013-08-25 06:15:00,72.2,67.1,30.02,North,351,18.0,35.0,84,0.00,,,0.00,Weather View 32 v70,2013-08-25 16:15:00,
2013-08-25 06:20:00,72.8,66.6,30.02,NW,325,25.0,35.0,81,0.00,,,0.00,Weather View 32 v70,2013-08-25 16:20:00,
2013-08-25 06:25:00,72.8,66.6,30.03,NNE,22,22.0,35.0,81,0.00,,,0.00,Weather View 32 v70,2013-08-25 16:25:00,
2013-08-25 06:30:00,72.4,67.6,30.02,NNE,15,17.0,35.0,85,0.00,,,0.00,Weather View 32 v70,2013-08-25 16:30:00,
2013-08-25 06:35:00,72.3,67.9,30.03,North,349,25.0,35.0,86,0.00,,,0.00,Weather View 32 v70,2013-08-25 16:35:00,
2013-08-25 06:40:00,72.3,68.2,30.04,NW,321,17.0,33.0,87,0.00,,,0.00,Weather View 32 v70,2013-08-25 16:40:00,
2013-08-25 06:45:00,72.4,68.3,30.04,NNW,334,19.0,33.0,87,0.00,,,0.00,Weather View 32 v70,2013-08-25 16:45:00,
2013-08-25 06:50:00,72.4,68.3,30.03,NNW,345,19.0,33.0,87,0.00,,,0.00,Weather View 32 v70,2013-08-25 16:50:00,
2013-08-25 06:55:00,72.5,68.4,30.03,NNE,13,25.0,33.0,87,0.00,,,0.00,Weather View 32 v70,2013-08-25 16:55:00,
2013-08-25 07:00:00,72.7,68.3,30.04,North,7,22.0,33.0,86,0.00,,,0.00,Weather View 32 v70,2013-08-25 17:00:00,
2013-08-25 07:05:00,72.8,68.0,30.04,NW,322,18.0,33.0,85,0.00,,,0.00,Weather View 32 v70,2013-08-25 17:05:00,
2013-08-25 07:10:00,72.9,68.1,30.03,North,349,28.0,33.0,85,0.00,,,0.00,Weather View 32 v70,2013-08-25 17:10:00,
2013-08-25 07:15:00,73.2,68.1,30.04,NNE,14,19.0,33.0,84,0.00,,,0.00,Weather View 32 v70,2013-08-25 17:15:00,
2013-08-25 07:20:00,73.1,68.6,30.04,North,355,26.0,33.0,86,0.00,,,0.00,Weather View 32 v70,2013-08-25 17:20:00,
2013-08-25 07:25:00,73.0,68.5,30.04,North,6,21.0,38.0,86,0.00,,,0.00,Weather View 32 v70,2013-08-25 17:25:00,
2013-08-25 07:30:00,73.1,68.3,30.04,NNW,332,23.0,38.0,85,0.00,,,0.00,Weather View 32 v70,2013-08-25 17:30:00,
2013-08-25 07:35:00,73.3,68.8,30.03,North,4,29.0,38.0,86,0.00,,,0.00,Weather View 32 v70,2013-08-25 17:35:00,
2013-08-25 07:40:00,73.6,68.4,30.04,North,11,28.0,38.0,84,0.00,,,0.00,Weather View 32 v70,2013-08-25 17:40:00,
2013-08-25 07:45:00,74.0,68.8,30.04,North,7,21.0,38.0,84,0.00,,,0.00,Weather View 32 v70,2013-08-25 17:45:00,
2013-08-25 07:50:00,73.9,68.7,30.03,North,349,29.0,38.0,84,0.00,,,0.00,Weather View 32 v70,2013-08-25 17:50:00,
2013-08-25 07:55:00,73.9,68.4,30.02,North,9,30.0,38.0,83,0.00,,,0.00,Weather View 32 v70,2013-08-25 17:55:00,
2013-08-25 08:00:00,73.8,68.6,30.03,North,358,22.0,38.0,84,0.00,,,0.00,Weather View 32 v70,2013-08-25 18:00:00,
2013-08-25 08:05:00,73.6,68.8,30.03,North,6,34.0,38.0,85,0.00,,,0.00,Weather View 32 v70,2013-08-25 18:05:00,
2013-08-25 08:06:00,73.5,68.7,30.03,North,8,37.0,38.0,85,0.00,,,0.00,Weather View 32 v70,2013-08-25 18:06:00,
2013-08-25 08:11:00,73.9,68.7,30.04,NNW,347,19.0,38.0,84,0.00,,,0.00,Weather View 32 v70,2013-08-25 18:11:00,
2013-08-25 08:16:00,74.6,69.4,30.05,North,4,29.0,38.0,84,0.00,,,0.00,Weather View 32 v70,2013-08-25 18:16:00,
2013-08-25 08:21:00,74.4,68.5,30.06,North,349,25.0,41.0,82,0.00,,,0.00,Weather View 32 v70,2013-08-25 18:21:00,
2013-08-25 08:30:00,74.9,69.0,30.06,North,353,32.0,41.0,82,0.00,,,0.00,Weather View 32 v70,2013-08-25 18:30:00,
2013-08-25 08:36:00,74.3,67.7,30.05,North,357,18.0,41.0,80,0.00,,,0.00,Weather View 32 v70,2013-08-25 18:36:00,
2013-08-25 08:40:00,74.3,68.4,30.04,NNE,14,28.0,41.0,82,0.00,,,0.00,Weather View 32 v70,2013-08-25 18:40:00,
2013-08-25 08:41:00,74.3,68.4,30.06,NNE,23,32.0,41.0,82,0.00,,,0.00,Weather View 32 v70,2013-08-25 18:41:00,
2013-08-25 08:47:00,74.1,67.9,30.06,NNE,29,18.0,41.0,81,0.00,,,0.00,Weather View 32 v70,2013-08-25 18:47:00,
2013-08-25 08:52:00,74.1,68.2,30.06,North,354,21.0,41.0,82,0.00,,,0.00,Weather View 32 v70,2013-08-25 18:52:00,
2013-08-25 08:55:00,74.2,68.0,30.06,North,6,25.0,41.0,81,0.00,,,0.00,Weather View 32 v70,2013-08-25 18:55:00,
2013-08-25 08:57:00,74.0,67.4,30.05,NNE,19,26.0,41.0,80,0.00,,,0.00,Weather View 32 v70,2013-08-25 18:57:00,
2013-08-25 09:00:00,74.0,67.4,30.06,North,6,22.0,41.0,80,0.00,,,0.00,Weather View 32 v70,2013-08-25 19:00:00,
2013-08-25 09:04:00,74.2,68.0,30.04,NNE,29,26.0,41.0,81,0.00,,,0.00,Weather View 32 v70,2013-08-25 19:04:00,
2013-08-25 09:09:00,74.0,68.1,30.05,North,349,26.0,41.0,82,0.00,,,0.00,Weather View 32 v70,2013-08-25 19:09:00,
2013-08-25 09:15:00,74.0,68.5,30.06,North,351,20.0,41.0,83,0.00,,,0.00,Weather View 32 v70,2013-08-25 19:15:00,
2013-08-25 09:20:00,74.1,68.2,30.04,North,6,27.0,41.0,82,0.00,,,0.00,Weather View 32 v70,2013-08-25 19:20:00,
2013-08-25 09:26:00,73.6,67.0,30.04,North,353,37.0,38.0,80,0.00,,,0.00,Weather View 32 v70,2013-08-25 19:26:00,
2013-08-25 09:31:00,73.8,68.3,30.05,NNW,348,18.0,38.0,83,0.00,,,0.00,Weather View 32 v70,2013-08-25 19:31:00,
2013-08-25 09:37:00,74.0,68.8,30.06,NNE,18,28.0,37.0,84,0.00,,,0.00,Weather View 32 v70,2013-08-25 19:37:00,
2013-08-25 09:43:00,74.7,67.7,30.04,NNE,20,34.0,37.0,79,0.00,,,0.00,Weather View 32 v70,2013-08-25 19:43:00,
2013-08-25 09:48:00,74.1,68.6,30.06,North,360,29.0,38.0,83,0.00,,,0.00,Weather View 32 v70,2013-08-25 19:48:00,
2013-08-25 09:54:00,74.2,68.0,30.06,NNE,32,26.0,38.0,81,0.00,,,0.00,Weather View 32 v70,2013-08-25 19:54:00,
2013-08-25 10:00:00,73.9,68.0,30.06,North,4,24.0,38.0,82,0.00,,,0.00,Weather View 32 v70,2013-08-25 20:00:00,
2013-08-25 10:05:00,73.8,68.3,30.06,North,10,27.0,38.0,83,0.00,,,0.00,Weather View 32 v70,2013-08-25 20:05:00,
2013-08-25 10:10:00,73.9,68.4,30.06,NNE,24,24.0,38.0,83,0.00,,,0.00,Weather View 32 v70,2013-08-25 20:10:00,
2013-08-25 10:15:00,74.1,68.2,30.07,NNE,16,34.0,38.0,82,0.00,,,0.00,Weather View 32 v70,2013-08-25 20:15:00,
2013-08-25 10:20:00,74.1,68.2,30.05,NNE,12,23.0,38.0,82,0.00,,,0.00,Weather View 32 v70,2013-08-25 20:20:00,
2013-08-25 10:25:00,73.9,68.4,30.07,NNE,21,18.0,38.0,83,0.00,,,0.00,Weather View 32 v70,2013-08-25 20:25:00,
2013-08-25 10:26:00,74.0,68.5,30.05,North,1,32.0,38.0,83,0.00,,,0.00,Weather View 32 v70,2013-08-25 20:26:00,
2013-08-25 10:30:00,74.1,68.6,30.06,NNE,13,25.0,38.0,83,0.00,,,0.00,Weather View 32 v70,2013-08-25 20:30:00,
2013-08-25 10:32:00,74.0,68.5,30.04,North,357,30.0,38.0,83,0.00,,,0.00,Weather View 32 v70,2013-08-25 20:32:00,
2013-08-25 10:35:00,74.0,68.5,30.07,North,353,25.0,38.0,83,0.00,,,0.00,Weather View 32 v70,2013-08-25 20:35:00,
2013-08-25 10:38:00,74.1,68.9,30.04,North,3,30.0,38.0,84,0.00,,,0.00,Weather View 32 v70,2013-08-25 20:38:00,
2013-08-25 10:50:00,74.4,68.5,30.04,NNE,14,26.0,38.0,82,0.00,,,0.00,Weather View 32 v70,2013-08-25 20:50:00,
2013-08-25 10:55:00,74.4,68.9,30.07,NNE,31,20.0,38.0,83,0.00,,,0.00,Weather View 32 v70,2013-08-25 20:55:00,
2013-08-25 11:00:00,75.0,68.4,30.06,NE,40,22.0,38.0,80,0.00,,,0.00,Weather View 32 v70,2013-08-25 21:00:00,
2013-08-25 11:04:00,74.8,67.5,30.05,NNE,26,29.0,38.0,78,0.00,,,0.00,Weather View 32 v70,2013-08-25 21:04:00,
2013-08-25 11:05:00,75.0,67.3,30.04,NNE,16,30.0,38.0,77,0.00,,,0.00,Weather View 32 v70,2013-08-25 21:05:00,
2013-08-25 11:09:00,75.3,66.8,30.06,NNE,20,25.0,38.0,75,0.00,,,0.00,Weather View 32 v70,2013-08-25 21:09:00,
2013-08-25 11:10:00,75.4,66.5,30.06,NNE,31,23.0,38.0,74,0.00,,,0.00,Weather View 32 v70,2013-08-25 21:10:00,
2013-08-25 11:15:00,76.1,67.2,30.04,NNE,16,30.0,38.0,74,0.00,,,0.00,Weather View 32 v70,2013-08-25 21:15:00,
2013-08-25 11:16:00,76.0,65.9,30.03,NNE,31,28.0,38.0,71,0.00,,,0.00,Weather View 32 v70,2013-08-25 21:16:00,
2013-08-25 11:22:00,76.4,65.9,30.05,NE,39,25.0,38.0,70,0.00,,,0.00,Weather View 32 v70,2013-08-25 21:22:00,
2013-08-25 11:27:00,76.7,66.1,30.05,NE,41,22.0,37.0,70,0.00,,,0.00,Weather View 32 v70,2013-08-25 21:27:00,
2013-08-25 11:32:00,76.6,66.0,30.03,NNE,24,28.0,37.0,70,0.00,,,0.00,Weather View 32 v70,2013-08-25 21:32:00,
2013-08-25 11:38:00,76.5,66.4,30.05,North,7,29.0,37.0,71,0.00,,,0.00,Weather View 32 v70,2013-08-25 21:38:00,
2013-08-25 11:43:00,76.3,66.2,30.04,NE,39,27.0,37.0,71,0.00,,,0.00,Weather View 32 v70,2013-08-25 21:43:00,
2013-08-25 11:48:00,76.1,66.4,30.04,NNE,20,29.0,37.0,72,0.00,,,0.00,Weather View 32 v70,2013-08-25 21:48:00,
2013-08-25 11:58:00,75.9,66.2,30.04,North,359,32.0,37.0,72,0.00,,,0.00,Weather View 32 v70,2013-08-25 21:58:00,
2013-08-25 12:00:00,76.7,64.9,30.03,North,6,28.0,40.0,67,0.00,,,0.00,Weather View 32 v70,2013-08-25 22:00:00,
2013-08-25 12:03:00,77.1,65.3,30.03,NNE,14,25.0,40.0,67,0.00,,,0.00,Weather View 32 v70,2013-08-25 22:03:00,
2013-08-25 12:05:00,76.8,66.2,30.04,NNE,16,22.0,40.0,70,0.00,,,0.00,Weather View 32 v70,2013-08-25 22:05:00,
2013-08-25 12:08:00,76.5,66.4,30.03,North,8,25.0,40.0,71,0.00,,,0.00,Weather View 32 v70,2013-08-25 22:08:00,
2013-08-25 12:13:00,76.6,66.5,30.03,North,4,33.0,40.0,71,0.00,,,0.00,Weather View 32 v70,2013-08-25 22:13:00,
2013-08-25 12:19:00,76.8,66.6,30.03,North,4,28.0,40.0,71,0.00,,,0.00,Weather View 32 v70,2013-08-25 22:19:00,
2013-08-25 12:24:00,76.8,66.6,30.04,NNE,31,28.0,40.0,71,0.00,,,0.00,Weather View 32 v70,2013-08-25 22:24:00,
2013-08-25 12:29:00,76.1,66.4,30.02,NNE,16,19.0,40.0,72,0.00,,,0.00,Weather View 32 v70,2013-08-25 22:29:00,
2013-08-25 12:39:00,75.9,67.0,30.02,North,349,31.0,40.0,74,0.00,,,0.00,Weather View 32 v70,2013-08-25 22:39:00,
2013-08-25 12:44:00,76.1,66.8,30.02,North,6,35.0,40.0,73,0.00,,,0.00,Weather View 32 v70,2013-08-25 22:44:00,
2013-08-25 12:53:00,76.0,67.1,30.03,North,1,31.0,40.0,74,0.00,,,0.00,Weather View 32 v70,2013-08-25 22:53:00,
2013-08-25 12:58:00,75.8,67.3,30.01,NNE,12,32.0,40.0,75,0.00,,,0.00,Weather View 32 v70,2013-08-25 22:58:00,
2013-08-25 13:03:00,76.1,67.6,30.04,North,4,22.0,38.0,75,0.00,,,0.00,Weather View 32 v70,2013-08-25 23:03:00,
2013-08-25 13:08:00,76.4,66.3,30.01,North,1,33.0,38.0,71,0.00,,,0.00,Weather View 32 v70,2013-08-25 23:08:00,
2013-08-25 13:15:00,76.4,66.3,30.03,North,10,31.0,38.0,71,0.00,,,0.00,Weather View 32 v70,2013-08-25 23:15:00,
2013-08-25 13:20:00,76.9,66.7,30.02,NNE,26,29.0,38.0,71,0.00,,,0.00,Weather View 32 v70,2013-08-25 23:20:00,
2013-08-25 13:25:00,76.7,67.0,30.02,North,359,22.0,38.0,72,0.00,,,0.00,Weather View 32 v70,2013-08-25 23:25:00,
2013-08-25 13:30:00,76.8,67.1,30.02,North,9,22.0,38.0,72,0.00,,,0.00,Weather View 32 v70,2013-08-25 23:30:00,
2013-08-25 13:35:00,76.6,66.5,30.01,NNE,12,30.0,38.0,71,0.00,,,0.00,Weather View 32 v70,2013-08-25 23:35:00,
2013-08-25 13:40:00,76.9,67.5,30.01,North,3,33.0,38.0,73,0.00,,,0.00,Weather View 32 v70,2013-08-25 23:40:00,
2013-08-25 13:45:00,76.7,65.3,30.01,North,6,28.0,38.0,68,0.00,,,0.00,Weather View 32 v70,2013-08-25 23:45:00,
2013-08-25 13:50:00,77.0,67.2,30.00,NNE,13,24.0,38.0,72,0.00,,,0.00,Weather View 32 v70,2013-08-25 23:50:00,
2013-08-25 13:55:00,77.0,66.0,29.98,NNW,343,20.0,37.0,69,0.00,,,0.00,Weather View 32 v70,2013-08-25 23:55:00,
2013-08-25 14:00:00,77.1,65.3,29.99,NNE,12,30.0,37.0,67,0.00,,,0.00,Weather View 32 v70,2013-08-26 00:00:00,
2013-08-25 14:02:00,77.1,65.3,29.99,NNE,17,26.0,37.0,67,0.00,,,0.00,Weather View 32 v70,2013-08-26 00:02:00,
2013-08-25 14:05:00,77.2,64.0,29.99,North,3,33.0,37.0,64,0.00,,,0.00,Weather View 32 v70,2013-08-26 00:05:00,
2013-08-25 14:07:00,77.0,65.2,29.99,NNE,22,27.0,37.0,67,0.00,,,0.00,Weather View 32 v70,2013-08-26 00:07:00,
2013-08-25 14:10:00,77.0,65.6,30.00,North,1,25.0,37.0,68,0.00,,,0.00,Weather View 32 v70,2013-08-26 00:10:00,
2013-08-25 14:12:00,77.2,65.8,30.01,North,358,23.0,37.0,68,0.00,,,0.00,Weather View 32 v70,2013-08-26 00:12:00,
2013-08-25 14:15:00,77.3,65.4,30.00,North,7,27.0,37.0,67,0.00,,,0.00,Weather View 32 v70,2013-08-26 00:15:00,
2013-08-25 14:18:00,77.0,65.6,30.00,NNE,27,22.0,38.0,68,0.00,,,0.00,Weather View 32 v70,2013-08-26 00:18:00,
2013-08-25 14:20:00,77.1,65.3,30.01,North,8,32.0,38.0,67,0.00,,,0.00,Weather View 32 v70,2013-08-26 00:20:00,
2013-08-25 14:24:00,77.0,65.2,30.00,NNW,345,35.0,38.0,67,0.00,,,0.00,Weather View 32 v70,2013-08-26 00:24:00,
2013-08-25 14:25:00,76.9,65.1,30.00,North,355,26.0,38.0,67,0.00,,,0.00,Weather View 32 v70,2013-08-26 00:25:00,
2013-08-25 14:29:00,76.6,65.2,30.00,North,10,27.0,38.0,68,0.00,,,0.00,Weather View 32 v70,2013-08-26 00:29:00,
2013-08-25 14:30:00,76.6,65.2,30.00,North,359,38.0,39.0,68,0.00,,,0.00,Weather View 32 v70,2013-08-26 00:30:00,
2013-08-25 14:34:00,76.6,65.6,30.01,NNE,12,27.0,39.0,69,0.00,,,0.00,Weather View 32 v70,2013-08-26 00:34:00,
2013-08-25 14:35:00,76.6,65.6,29.99,NNE,13,27.0,39.0,69,0.00,,,0.00,Weather View 32 v70,2013-08-26 00:35:00,
2013-08-25 14:40:00,76.6,65.2,30.00,NNE,14,26.0,40.0,68,0.00,,,0.00,Weather View 32 v70,2013-08-26 00:40:00,
2013-08-25 14:45:00,76.9,66.7,30.01,NNW,328,18.0,40.0,71,0.00,,,0.00,Weather View 32 v70,2013-08-26 00:45:00,
2013-08-25 14:52:00,77.3,66.7,30.01,North,353,24.0,40.0,70,0.00,,,0.00,Weather View 32 v70,2013-08-26 00:52:00,
2013-08-25 14:55:00,76.6,66.9,30.00,North,352,26.0,40.0,72,0.00,,,0.00,Weather View 32 v70,2013-08-26 00:55:00,
2013-08-25 14:57:00,76.3,67.0,30.00,NNE,12,25.0,40.0,73,0.00,,,0.00,Weather View 32 v70,2013-08-26 00:57:00,
2013-08-25 15:02:00,76.8,66.6,30.00,NE,43,25.0,40.0,71,0.00,,,0.00,Weather View 32 v70,2013-08-26 01:02:00,
2013-08-25 15:05:00,76.4,67.1,29.99,North,6,24.0,40.0,73,0.00,,,0.00,Weather View 32 v70,2013-08-26 01:05:00,
2013-08-25 15:07:00,76.0,66.7,30.00,NNW,345,34.0,40.0,73,0.00,,,0.00,Weather View 32 v70,2013-08-26 01:07:00,
2013-08-25 15:12:00,75.9,67.0,30.00,North,4,17.0,40.0,74,0.00,,,0.00,Weather View 32 v70,2013-08-26 01:12:00,
2013-08-25 15:18:00,76.2,67.3,30.00,NNW,333,20.0,40.0,74,0.00,,,0.00,Weather View 32 v70,2013-08-26 01:18:00,
2013-08-25 15:24:00,76.0,67.1,29.99,NNE,12,27.0,40.0,74,0.00,,,0.00,Weather View 32 v70,2013-08-26 01:24:00,
2013-08-25 15:30:00,76.0,67.1,29.99,NNE,29,21.0,40.0,74,0.00,,,0.00,Weather View 32 v70,2013-08-26 01:30:00,
2013-08-25 15:35:00,75.8,66.9,30.00,North,6,26.0,40.0,74,0.00,,,0.00,Weather View 32 v70,2013-08-26 01:35:00,
2013-08-25 15:41:00,75.7,66.8,29.99,North,10,29.0,39.0,74,0.00,,,0.00,Weather View 32 v70,2013-08-26 01:41:00,
2013-08-25 15:46:00,75.6,67.1,29.99,NNW,347,24.0,39.0,75,0.00,,,0.00,Weather View 32 v70,2013-08-26 01:46:00,
2013-08-25 15:53:00,75.5,67.0,30.01,NNW,330,19.0,39.0,75,0.00,,,0.00,Weather View 32 v70,2013-08-26 01:53:00,
2013-08-25 16:00:00,75.5,67.0,30.00,NNW,341,17.0,38.0,75,0.00,,,0.00,Weather View 32 v70,2013-08-26 02:00:00,
2013-08-25 16:08:00,75.1,66.6,30.00,North,9,11.0,35.0,75,0.00,,,0.00,Weather View 32 v70,2013-08-26 02:08:00,
2013-08-25 16:13:00,75.3,66.8,30.01,NNW,337,13.0,35.0,75,0.00,,,0.00,Weather View 32 v70,2013-08-26 02:13:00,
2013-08-25 16:20:00,75.0,66.5,30.01,NNW,330,9.0,35.0,75,0.00,,,0.00,Weather View 32 v70,2013-08-26 02:20:00,
2013-08-25 16:27:00,74.6,66.9,30.00,NNW,340,25.0,35.0,77,0.00,,,0.00,Weather View 32 v70,2013-08-26 02:27:00,
2013-08-25 16:32:00,74.4,66.3,30.00,NNW,339,35.0,35.0,76,0.00,,,0.00,Weather View 32 v70,2013-08-26 02:32:00,
2013-08-25 16:40:00,74.3,66.2,30.00,NW,325,20.0,36.0,76,0.00,,,0.00,Weather View 32 v70,2013-08-26 02:40:00,
2013-08-25 16:47:00,74.5,66.4,30.00,NW,319,22.0,36.0,76,0.00,,,0.00,Weather View 32 v70,2013-08-26 02:47:00,
2013-08-25 16:53:00,74.3,65.8,30.00,WNW,285,13.0,36.0,75,0.00,,,0.00,Weather View 32 v70,2013-08-26 02:53:00,
2013-08-25 16:59:00,74.3,66.2,30.00,NW,315,21.0,36.0,76,0.00,,,0.00,Weather View 32 v70,2013-08-26 02:59:00,
2013-08-25 17:04:00,74.3,66.6,30.00,NNW,329,23.0,36.0,77,0.00,,,0.00,Weather View 32 v70,2013-08-26 03:04:00,
2013-08-25 17:09:00,74.2,66.5,29.99,NW,308,18.0,36.0,77,0.00,,,0.00,Weather View 32 v70,2013-08-26 03:09:00,
2013-08-25 17:14:00,74.2,66.5,30.00,NW,323,19.0,36.0,77,0.00,,,0.00,Weather View 32 v70,2013-08-26 03:14:00,
2013-08-25 17:19:00,74.1,66.8,30.00,NW,315,17.0,36.0,78,0.00,,,0.00,Weather View 32 v70,2013-08-26 03:19:00,
2013-08-25 17:24:00,74.0,66.7,30.01,WNW,298,11.0,36.0,78,0.00,,,0.00,Weather View 32 v70,2013-08-26 03:24:00,
2013-08-25 17:29:00,74.0,66.7,30.01,NW,311,23.0,36.0,78,0.00,,,0.00,Weather View 32 v70,2013-08-26 03:29:00,
2013-08-25 17:34:00,74.1,66.4,30.01,North,1,10.0,36.0,77,0.00,,,0.00,Weather View 32 v70,2013-08-26 03:34:00,
2013-08-25 17:39:00,74.2,66.1,30.02,NW,322,12.0,36.0,76,0.00,,,0.00,Weather View 32 v70,2013-08-26 03:39:00,
2013-08-25 17:44:00,74.3,65.8,30.01,NW,317,13.0,36.0,75,0.00,,,0.00,Weather View 32 v70,2013-08-26 03:44:00,
2013-08-25 17:49:00,74.3,66.2,30.00,NW,312,17.0,36.0,76,0.00,,,0.00,Weather View 32 v70,2013-08-26 03:49:00,
2013-08-25 17:54:00,74.4,65.9,30.01,NW,322,21.0,36.0,75,0.00,,,0.00,Weather View 32 v70,2013-08-26 03:54:00,
2013-08-25 17:59:00,74.4,65.9,30.00,NNW,332,27.0,36.0,75,0.00,,,0.00,Weather View 32 v70,2013-08-26 03:59:00,
2013-08-25 18:01:00,74.4,65.9,30.00,NNW,331,24.0,36.0,75,0.00,,,0.00,Weather View 32 v70,2013-08-26 04:01:00,
2013-08-25 18:06:00,74.4,66.3,30.00,NW,318,29.0,41.0,76,0.00,,,0.00,Weather View 32 v70,2013-08-26 04:06:00,
2013-08-25 18:11:00,74.3,66.6,30.00,NNW,332,27.0,41.0,77,0.00,,,0.00,Weather View 32 v70,2013-08-26 04:11:00,
2013-08-25 18:16:00,74.4,66.7,30.01,NNW,330,18.0,41.0,77,0.00,,,0.00,Weather View 32 v70,2013-08-26 04:16:00,
2013-08-25 18:21:00,74.3,66.6,30.01,NW,310,23.0,41.0,77,0.00,,,0.00,Weather View 32 v70,2013-08-26 04:21:00,
2013-08-25 18:26:00,74.2,66.9,30.02,NNW,335,18.0,41.0,78,0.00,,,0.00,Weather View 32 v70,2013-08-26 04:26:00,
2013-08-25 18:31:00,74.3,67.0,30.02,NNW,345,25.0,41.0,78,0.00,,,0.00,Weather View 32 v70,2013-08-26 04:31:00,
2013-08-25 18:36:00,74.3,67.0,30.02,NW,306,14.0,41.0,78,0.00,,,0.00,Weather View 32 v70,2013-08-26 04:36:00,
2013-08-25 18:41:00,74.2,67.2,30.02,NW,320,16.0,41.0,79,0.00,,,0.00,Weather View 32 v70,2013-08-26 04:41:00,
2013-08-25 18:46:00,74.3,67.0,30.02,NNW,345,22.0,41.0,78,0.00,,,0.00,Weather View 32 v70,2013-08-26 04:46:00,
2013-08-25 18:51:00,74.3,67.0,30.00,North,4,13.0,41.0,78,0.00,,,0.00,Weather View 32 v70,2013-08-26 04:51:00,
2013-08-25 18:56:00,74.3,67.0,30.03,North,357,19.0,41.0,78,0.00,,,0.00,Weather View 32 v70,2013-08-26 04:56:00,
2013-08-25 19:01:00,74.6,66.5,30.03,North,349,24.0,41.0,76,0.00,,,0.00,Weather View 32 v70,2013-08-26 05:01:00,
2013-08-25 19:06:00,74.4,66.3,30.03,NNW,334,24.0,36.0,76,0.00,,,0.00,Weather View 32 v70,2013-08-26 05:06:00,
2013-08-25 19:11:00,74.3,66.2,30.03,NW,321,34.0,36.0,76,0.00,,,0.00,Weather View 32 v70,2013-08-26 05:11:00,
2013-08-25 19:16:00,74.2,66.5,30.02,NNW,342,19.0,36.0,77,0.00,,,0.00,Weather View 32 v70,2013-08-26 05:16:00,
2013-08-25 19:21:00,74.2,66.5,30.04,North,8,20.0,34.0,77,0.00,,,0.00,Weather View 32 v70,2013-08-26 05:21:00,
2013-08-25 19:26:00,74.1,66.0,30.03,North,1,19.0,34.0,76,0.00,,,0.00,Weather View 32 v70,2013-08-26 05:26:00,
2013-08-25 19:31:00,74.0,65.9,30.03,NNW,332,28.0,34.0,76,0.00,,,0.00,Weather View 32 v70,2013-08-26 05:31:00,
2013-08-25 19:36:00,74.1,66.0,30.02,NNW,337,27.0,40.0,76,0.00,,,0.00,Weather View 32 v70,2013-08-26 05:36:00,
2013-08-25 19:41:00,73.8,66.9,30.03,NNW,341,31.0,40.0,79,0.00,,,0.00,Weather View 32 v70,2013-08-26 05:41:00,
2013-08-25 19:46:00,73.6,67.4,30.04,North,355,30.0,40.0,81,0.00,,,0.00,Weather View 32 v70,2013-08-26 05:46:00,
2013-08-25 19:51:00,73.4,67.5,30.03,North,356,17.0,40.0,82,0.00,,,0.00,Weather View 32 v70,2013-08-26 05:51:00,
2013-08-25 19:56:00,73.3,67.8,30.05,North,360,18.0,40.0,83,0.00,,,0.00,Weather View 32 v70,2013-08-26 05:56:00,
2013-08-25 20:01:00,73.3,67.4,30.05,NNW,341,23.0,40.0,82,0.00,,,0.00,Weather View 32 v70,2013-08-26 06:01:00,
2013-08-25 20:06:00,73.7,66.0,30.05,NNW,332,30.0,40.0,77,0.00,,,0.00,Weather View 32 v70,2013-08-26 06:06:00,
2013-08-25 20:11:00,74.1,66.0,30.03,NNW,345,28.0,40.0,76,0.00,,,0.00,Weather View 32 v70,2013-08-26 06:11:00,
2013-08-25 20:16:00,73.6,67.0,30.04,North,353,27.0,40.0,80,0.00,,,0.00,Weather View 32 v70,2013-08-26 06:16:00,
2013-08-25 20:21:00,73.5,66.6,30.05,North,7,29.0,40.0,79,0.00,,,0.00,Weather View 32 v70,2013-08-26 06:21:00,
2013-08-25 20:26:00,73.7,66.8,30.04,NNW,345,29.0,40.0,79,0.00,,,0.00,Weather View 32 v70,2013-08-26 06:26:00,
2013-08-25 20:31:00,73.6,67.4,30.04,NNW,328,29.0,40.0,81,0.00,,,0.00,Weather View 32 v70,2013-08-26 06:31:00,
2013-08-25 20:36:00,73.5,66.9,30.05,NNE,12,16.0,39.0,80,0.00,,,0.00,Weather View 32 v70,2013-08-26 06:36:00,
2013-08-25 20:41:00,73.5,66.9,30.05,NNW,333,16.0,39.0,80,0.00,,,0.00,Weather View 32 v70,2013-08-26 06:41:00,
2013-08-25 20:46:00,73.5,66.6,30.06,North,355,32.0,39.0,79,0.00,,,0.00,Weather View 32 v70,2013-08-26 06:46:00,
2013-08-25 20:51:00,73.4,67.2,30.06,North,357,25.0,39.0,81,0.00,,,0.00,Weather View 32 v70,2013-08-26 06:51:00,
2013-08-25 20:56:00,73.5,66.9,30.06,North,351,27.0,39.0,80,0.00,,,0.00,Weather View 32 v70,2013-08-26 06:56:00,
2013-08-25 21:01:00,73.6,67.0,30.05,North,355,28.0,39.0,80,0.00,,,0.00,Weather View 32 v70,2013-08-26 07:01:00,
2013-08-25 21:06:00,73.4,67.2,30.05,NNW,332,31.0,39.0,81,0.00,,,0.00,Weather View 32 v70,2013-08-26 07:06:00,
2013-08-25 21:11:00,73.3,67.4,30.06,North,353,30.0,39.0,82,0.00,,,0.00,Weather View 32 v70,2013-08-26 07:11:00,
2013-08-25 21:16:00,73.2,68.1,30.06,North,353,30.0,39.0,84,0.00,,,0.00,Weather View 32 v70,2013-08-26 07:16:00,
2013-08-25 21:21:00,73.1,68.0,30.08,NNW,344,20.0,39.0,84,0.00,,,0.00,Weather View 32 v70,2013-08-26 07:21:00,
2013-08-25 21:26:00,73.0,67.9,30.08,NNW,337,26.0,39.0,84,0.00,,,0.00,Weather View 32 v70,2013-08-26 07:26:00,
2013-08-25 21:31:00,73.1,68.0,30.08,North,8,25.0,39.0,84,0.00,,,0.00,Weather View 32 v70,2013-08-26 07:31:00,
2013-08-25 21:36:00,73.2,67.4,30.07,North,10,25.0,39.0,82,0.00,,,0.00,Weather View 32 v70,2013-08-26 07:36:00,
2013-08-25 21:41:00,73.2,67.7,30.09,NNW,336,26.0,37.0,83,0.00,,,0.00,Weather View 32 v70,2013-08-26 07:41:00,
2013-08-25 21:46:00,73.1,68.0,30.07,NNW,334,25.0,37.0,84,0.00,,,0.00,Weather View 32 v70,2013-08-26 07:46:00,
2013-08-25 21:51:00,73.0,67.9,30.06,NNW,343,15.0,38.0,84,0.00,,,0.00,Weather View 32 v70,2013-08-26 07:51:00,
2013-08-25 21:56:00,73.0,67.9,30.07,North,353,35.0,38.0,84,0.00,,,0.00,Weather View 32 v70,2013-08-26 07:56:00,
2013-08-25 22:01:00,73.0,67.9,30.08,North,349,28.0,38.0,84,0.00,,,0.00,Weather View 32 v70,2013-08-26 08:01:00,
2013-08-25 22:06:00,73.0,67.9,30.06,North,9,24.0,40.0,84,0.00,,,0.00,Weather View 32 v70,2013-08-26 08:06:00,
2013-08-25 22:11:00,73.1,68.0,30.07,North,349,35.0,40.0,84,0.00,,,0.00,Weather View 32 v70,2013-08-26 08:11:00,
2013-08-25 22:16:00,73.1,67.3,30.08,North,355,26.0,40.0,82,0.00,,,0.00,Weather View 32 v70,2013-08-26 08:16:00,
2013-08-25 22:21:00,73.1,67.6,30.09,NNW,342,23.0,40.0,83,0.00,,,0.00,Weather View 32 v70,2013-08-26 08:21:00,
2013-08-25 22:26:00,73.1,67.3,30.08,NNW,345,29.0,40.0,82,0.00,,,0.00,Weather View 32 v70,2013-08-26 08:26:00,
2013-08-25 22:31:00,73.2,67.7,30.06,North,4,28.0,40.0,83,0.00,,,0.00,Weather View 32 v70,2013-08-26 08:31:00,
2013-08-25 22:36:00,73.1,67.6,30.08,North,356,24.0,40.0,83,0.00,,,0.00,Weather View 32 v70,2013-08-26 08:36:00,
2013-08-25 22:42:00,73.1,67.3,30.09,NNW,337,23.0,40.0,82,0.00,,,0.00,Weather View 32 v70,2013-08-26 08:42:00,
2013-08-25 22:47:00,73.3,67.1,30.07,NNW,343,28.0,40.0,81,0.00,,,0.00,Weather View 32 v70,2013-08-26 08:47:00,
2013-08-25 22:52:00,73.4,66.5,30.08,NNW,348,34.0,40.0,79,0.00,,,0.00,Weather View 32 v70,2013-08-26 08:52:00,
2013-08-25 22:57:00,73.4,66.8,30.08,NNW,347,20.0,40.0,80,0.00,,,0.00,Weather View 32 v70,2013-08-26 08:57:00,
2013-08-25 23:02:00,73.5,66.6,30.07,North,10,23.0,40.0,79,0.00,,,0.00,Weather View 32 v70,2013-08-26 09:02:00,
2013-08-25 23:07:00,73.6,67.0,30.08,North,359,28.0,36.0,80,0.00,,,0.00,Weather View 32 v70,2013-08-26 09:07:00,
2013-08-25 23:12:00,73.4,67.2,30.08,NNE,19,14.0,36.0,81,0.00,,,0.00,Weather View 32 v70,2013-08-26 09:12:00,
2013-08-25 23:17:00,73.4,66.8,30.06,North,4,27.0,36.0,80,0.00,,,0.00,Weather View 32 v70,2013-08-26 09:17:00,
2013-08-25 23:22:00,73.5,67.3,30.08,North,10,11.0,36.0,81,0.00,,,0.00,Weather View 32 v70,2013-08-26 09:22:00,
2013-08-25 23:27:00,73.5,67.3,30.07,NW,323,25.0,35.0,81,0.00,,,0.00,Weather View 32 v70,2013-08-26 09:27:00,
2013-08-25 23:32:00,73.4,67.2,30.07,NNW,334,21.0,35.0,81,0.00,,,0.00,Weather View 32 v70,2013-08-26 09:32:00,
2013-08-25 23:37:00,73.5,66.6,30.07,North,359,19.0,35.0,79,0.00,,,0.00,Weather View 32 v70,2013-08-26 09:37:00,
2013-08-25 23:42:00,73.6,66.7,30.08,NNE,26,16.0,35.0,79,0.00,,,0.00,Weather View 32 v70,2013-08-26 09:42:00,
2013-08-25 23:47:00,73.7,66.4,30.06,NNW,345,22.0,35.0,78,0.00,,,0.00,Weather View 32 v70,2013-08-26 09:47:00,
2013-08-25 23:52:00,73.4,67.2,30.05,North,355,29.0,34.0,81,0.00,,,0.00,Weather View 32 v70,2013-08-26 09:52:00,
2013-08-25 23:57:00,73.0,67.9,30.08,NNW,330,14.0,35.0,84,0.00,,,0.00,Weather View 32 v70,2013-08-26 09:57:00,